| time (UTC) | temp F | wind direction | speed knots | gust knots | rain 1hr in | rain 24hr in | rain mn in | humidity % | barometer mb |
| 20260831210054 | 73 | 224 | 1.7 | 14.8 | 0.00 | 0.00 | 0.00 | 34 | 1014.5 |
| 20260831204609 | 73 | 250 | 5.2 | 10.4 | 0.00 | 0.00 | 0.00 | 35 | 1014.7 |
| 20260831203103 | 73 | 0 | 0.0 | 14.8 | 0.00 | 0.00 | 0.00 | 35 | 1014.7 |
| 20260831201608 | 72 | 245 | 4.3 | 12.2 | 0.00 | 0.00 | 0.00 | 37 | 1015.1 |
| 20260831200106 | 72 | 0 | 0.9 | 10.4 | 0.00 | 0.00 | 0.00 | 38 | 1015.1 |
| 20260831194603 | 71 | 265 | 6.1 | 13.9 | 0.00 | 0.00 | 0.00 | 38 | 1015.3 |
| 20260831193128 | 71 | 302 | 3.5 | 12.2 | 0.00 | 0.00 | 0.00 | 39 | 1015.3 |
| 20260831191554 | 71 | 265 | 5.2 | 11.3 | 0.00 | 0.00 | 0.00 | 38 | 1015.5 |
| 20260831190104 | 70 | 234 | 2.6 | 13.9 | 0.00 | 0.00 | 0.00 | 40 | 1015.6 |
| 20260831184558 | 69 | 293 | 1.7 | 10.4 | 0.00 | 0.00 | 0.00 | 41 | 1015.9 |
| 20260831183101 | 69 | 0 | 4.3 | 13.0 | 0.00 | 0.00 | 0.00 | 42 | 1016.1 |
| 20260831181608 | 68 | 302 | 1.7 | 10.4 | 0.00 | 0.00 | 0.00 | 43 | 1016.2 |
| 20260831180108 | 68 | 0 | 1.7 | 12.2 | 0.00 | 0.00 | 0.00 | 43 | 1016.2 |
| 20260831174556 | 68 | 317 | 6.1 | 12.2 | 0.00 | 0.00 | 0.00 | 44 | 1016.4 |
| 20260831173103 | 67 | 324 | 6.1 | 12.2 | 0.00 | 0.00 | 0.00 | 44 | 1016.3 |
| 20260831171555 | 67 | 324 | 7.0 | 12.2 | 0.00 | 0.00 | 0.00 | 46 | 1016.2 |
| 20260831170100 | 66 | 320 | 7.8 | 16.5 | 0.00 | 0.00 | 0.00 | 46 | 1016.1 |
| 20260831164609 | 65 | 332 | 9.6 | 16.5 | 0.00 | 0.00 | 0.00 | 47 | 1016.1 |
| 20260831163059 | 64 | 308 | 8.7 | 14.8 | 0.00 | 0.00 | 0.00 | 46 | 1016.0 |
| 20260831161605 | 64 | 297 | 8.7 | 15.6 | 0.00 | 0.00 | 0.00 | 47 | 1016.0 |
| 20260831160108 | 63 | 298 | 8.7 | 17.4 | 0.00 | 0.00 | 0.00 | 48 | 1015.9 |
| 20260831154627 | 62 | 308 | 10.4 | 15.6 | 0.00 | 0.00 | 0.00 | 49 | 1016.0 |
| 20260831153104 | 60 | 288 | 8.7 | 13.9 | 0.00 | 0.00 | 0.00 | 52 | 1015.9 |
| 20260831151608 | 59 | 292 | 11.3 | 17.4 | 0.00 | 0.00 | 0.00 | 54 | 1015.9 |
| 20260831150107 | 57 | 294 | 11.3 | 16.5 | 0.00 | 0.00 | 0.00 | 56 | 1015.7 |
| 20260831144604 | 56 | 291 | 7.8 | 16.5 | 0.00 | 0.00 | 0.00 | 59 | 1015.6 |
| 20260831143057 | 55 | 279 | 9.6 | 14.8 | 0.00 | 0.00 | 0.00 | 60 | 1015.3 |
| 20260831141554 | 54 | 287 | 7.8 | 13.0 | 0.00 | 0.00 | 0.00 | 63 | 1015.3 |
| 20260831140055 | 52 | 289 | 4.3 | 9.6 | 0.00 | 0.00 | 0.00 | 66 | 1015.3 |
| 20260831134606 | 51 | 296 | 3.5 | 7.8 | 0.00 | 0.00 | 0.00 | 69 | 1015.2 |
| 20260831133056 | 49 | 292 | 2.6 | 7.8 | 0.00 | 0.00 | 0.00 | 71 | 1015.0 |
| 20260831131601 | 48 | 292 | 4.3 | 9.6 | 0.00 | 0.00 | 0.00 | 73 | 1014.7 |
| 20260831130111 | 48 | 286 | 4.3 | 7.8 | 0.00 | 0.00 | 0.00 | 74 | 1014.7 |
| 20260831124553 | 48 | 285 | 4.3 | 7.8 | 0.00 | 0.01 | 0.00 | 74 | 1014.4 |
| 20260831123054 | 48 | 284 | 4.3 | 8.7 | 0.00 | 0.01 | 0.00 | 72 | 1014.1 |
| 20260831121600 | 49 | 293 | 6.1 | 10.4 | 0.00 | 0.01 | 0.00 | 70 | 1013.8 |
| 20260831120059 | 50 | 297 | 7.8 | 11.3 | 0.00 | 0.01 | 0.00 | 69 | 1013.7 |
| 20260831114555 | 50 | 289 | 7.8 | 12.2 | 0.00 | 0.01 | 0.00 | 68 | 1013.8 |
| 20260831113102 | 50 | 289 | 8.7 | 13.9 | 0.00 | 0.01 | 0.00 | 68 | 1013.8 |
| 20260831111555 | 51 | 292 | 7.8 | 13.9 | 0.00 | 0.01 | 0.00 | 67 | 1013.7 |
| 20260831110057 | 51 | 288 | 8.7 | 14.8 | 0.00 | 0.01 | 0.00 | 69 | 1013.7 |
| 20260831104559 | 48 | 288 | 7.0 | 10.4 | 0.00 | 0.01 | 0.00 | 75 | 1013.6 |
| 20260831103055 | 47 | 288 | 4.3 | 9.6 | 0.00 | 0.01 | 0.00 | 75 | 1013.6 |
| 20260831101552 | 47 | 287 | 5.2 | 8.7 | 0.00 | 0.01 | 0.00 | 75 | 1013.3 |
| 20260831100121 | 47 | 283 | 4.3 | 7.8 | 0.00 | 0.01 | 0.00 | 75 | 1013.4 |
| 20260831094555 | 48 | 285 | 3.5 | 6.1 | 0.00 | 0.01 | 0.00 | 73 | 1013.3 |
| 20260831093102 | 49 | 285 | 3.5 | 7.8 | 0.00 | 0.01 | 0.00 | 71 | 1013.4 |
| 20260831091557 | 49 | 289 | 4.3 | 8.7 | 0.00 | 0.01 | 0.00 | 69 | 1013.2 |
| 20260831090114 | 50 | 263 | 2.6 | 9.6 | 0.00 | 0.01 | 0.00 | 68 | 1013.1 |
| 20260831084608 | 49 | 259 | 5.2 | 8.7 | 0.00 | 0.02 | 0.00 | 70 | 1013.1 |
| 20260831083112 | 48 | 257 | 4.3 | 7.8 | 0.00 | 0.02 | 0.00 | 71 | 1012.8 |
| 20260831081602 | 49 | 257 | 4.3 | 7.8 | 0.00 | 0.02 | 0.00 | 70 | 1012.5 |
| 20260831080130 | 49 | 256 | 5.2 | 8.7 | 0.00 | 0.02 | 0.00 | 71 | 1012.3 |
| 20260831074557 | 48 | 255 | 6.1 | 9.6 | 0.00 | 0.02 | 0.00 | 72 | 1012.4 |
| 20260831073103 | 49 | 260 | 7.0 | 10.4 | 0.00 | 0.02 | 0.00 | 71 | 1012.2 |
| 20260831071608 | 48 | 257 | 7.0 | 11.3 | 0.00 | 0.02 | 0.00 | 73 | 1012.2 |
| 20260831070055 | 48 | 255 | 7.0 | 9.6 | 0.00 | 0.02 | 0.00 | 74 | 1012.2 |
| 20260831064602 | 48 | 257 | 5.2 | 7.8 | 0.00 | 0.02 | 0.00 | 74 | 1012.3 |
| 20260831063110 | 49 | 257 | 3.5 | 8.7 | 0.00 | 0.02 | 0.00 | 72 | 1012.6 |
| 20260831061555 | 50 | 257 | 6.1 | 10.4 | 0.00 | 0.02 | 0.00 | 70 | 1012.4 |
| 20260831060109 | 51 | 263 | 3.5 | 7.0 | 0.00 | 0.02 | 0.00 | 67 | 1012.5 |
| 20260831054558 | 52 | 263 | 5.2 | 7.8 | 0.00 | 0.02 | 0.02 | 65 | 1012.7 |
| 20260831053126 | 53 | 267 | 5.2 | 9.6 | 0.00 | 0.02 | 0.02 | 64 | 1012.5 |
| 20260831051602 | 53 | 267 | 5.2 | 9.6 | 0.00 | 0.02 | 0.02 | 63 | 1012.4 |
| 20260831044645 | 55 | 267 | 6.1 | 14.8 | 0.00 | 0.03 | 0.02 | 59 | 1012.3 |
| 20260831043055 | 56 | 272 | 7.8 | 17.4 | 0.00 | 0.03 | 0.02 | 56 | 1012.3 |
| 20260831041607 | 57 | 263 | 11.3 | 20.9 | 0.00 | 0.03 | 0.02 | 52 | 1012.2 |
| 20260831040059 | 58 | 267 | 13.9 | 23.5 | 0.00 | 0.03 | 0.02 | 50 | 1012.1 |
| 20260831034555 | 58 | 260 | 12.2 | 20.9 | 0.00 | 0.04 | 0.02 | 49 | 1012.0 |
| 20260831033109 | 59 | 267 | 12.2 | 23.5 | 0.00 | 0.04 | 0.02 | 48 | 1012.0 |
| 20260831031555 | 59 | 261 | 13.9 | 20.9 | 0.00 | 0.04 | 0.02 | 47 | 1011.9 |
| 20260831030058 | 59 | 271 | 12.2 | 20.9 | 0.00 | 0.04 | 0.02 | 48 | 1011.8 |
| 20260831024603 | 59 | 271 | 10.4 | 20.0 | 0.00 | 0.04 | 0.02 | 48 | 1011.6 |
| 20260831023056 | 59 | 263 | 11.3 | 20.0 | 0.00 | 0.04 | 0.02 | 47 | 1011.3 |
| 20260831021557 | 59 | 270 | 13.9 | 24.3 | 0.00 | 0.04 | 0.02 | 46 | 1011.1 |
| 20260831020054 | 60 | 259 | 13.0 | 24.3 | 0.00 | 0.04 | 0.02 | 46 | 1010.9 |
| 20260831014556 | 60 | 267 | 13.9 | 24.3 | 0.00 | 0.04 | 0.02 | 46 | 1010.9 |
| 20260831013105 | 60 | 275 | 13.9 | 25.2 | 0.00 | 0.04 | 0.02 | 45 | 1010.9 |
| 20260831011557 | 61 | 270 | 17.4 | 26.9 | 0.00 | 0.04 | 0.02 | 44 | 1010.9 |
| 20260831010118 | 62 | 262 | 13.9 | 25.2 | 0.00 | 0.04 | 0.02 | 43 | 1011.0 |
| 20260831004557 | 62 | 288 | 14.8 | 26.1 | 0.00 | 0.05 | 0.02 | 44 | 1011.2 |
| 20260831003104 | 62 | 262 | 15.6 | 26.1 | 0.00 | 0.05 | 0.02 | 43 | 1011.1 |
| 20260831001603 | 62 | 275 | 16.5 | 29.5 | 0.00 | 0.05 | 0.02 | 43 | 1011.1 |
| 20260831000106 | 62 | 253 | 15.6 | 28.7 | 0.00 | 0.05 | 0.02 | 43 | 1011.0 |
| 20260830234601 | 63 | 279 | 17.4 | 26.9 | 0.00 | 0.08 | 0.02 | 41 | 1011.0 |
| 20260830233106 | 64 | 265 | 16.5 | 26.9 | 0.00 | 0.08 | 0.02 | 39 | 1011.0 |
| 20260830231607 | 64 | 248 | 18.2 | 28.7 | 0.00 | 0.08 | 0.02 | 41 | 1010.9 |
| 20260830230056 | 64 | 262 | 14.8 | 25.2 | 0.00 | 0.08 | 0.02 | 41 | 1010.8 |
| 20260830224559 | 64 | 288 | 15.6 | 26.9 | 0.00 | 0.08 | 0.02 | 39 | 1010.8 |
| 20260830223103 | 63 | 258 | 13.0 | 28.7 | 0.00 | 0.08 | 0.02 | 41 | 1010.8 |
| 20260830221557 | 64 | 263 | 17.4 | 29.5 | 0.00 | 0.08 | 0.02 | 41 | 1010.9 |
| 20260830220100 | 64 | 268 | 13.9 | 28.7 | 0.00 | 0.08 | 0.02 | 41 | 1011.1 |
| 20260830214553 | 65 | 260 | 15.6 | 26.9 | 0.00 | 0.08 | 0.02 | 40 | 1011.1 |
| 20260830213113 | 62 | 252 | 14.8 | 23.5 | 0.00 | 0.08 | 0.02 | 43 | 1011.3 |
| 20260830211606 | 62 | 240 | 19.1 | 25.2 | 0.00 | 0.08 | 0.02 | 43 | 1011.4 |